Hourly Data Report for February 18, 2017

TORONTO CITY
ONTARIO

43°40'00.000" N
79°24'00.000" W
112.50 m
6158355
71508
XTO

Download Data

Hourly Data (February 2017)
Hourly Data Report for February 18, 2017
TIME Temp Definition
°C
Dew Point Definition
°C
Rel Hum Definition
%
Wind Dir Definition
10's deg

Wind Spd Definition
km/h
Visibility Definition
km
Stn Press Definition
kPa
Hmdx Definition


Wind Chill Definition


Weather Definition


00:00 1.4 -2.4 76 LegendMM LegendMM   99.27     LegendNANA
01:00 1.3 -2.1 78 LegendMM LegendMM   99.23     LegendNANA
02:00 1.5 -1.9 78 LegendMM LegendMM   99.16     LegendNANA
03:00 1.5 -1.7 80 LegendMM LegendMM   99.05     LegendNANA
04:00 0.8 -2.0 82 LegendMM LegendMM   98.98     LegendNANA
05:00 0.5 -1.8 85 LegendMM LegendMM   98.92     LegendNANA
06:00 0.7 -1.9 83 LegendMM LegendMM   98.87     LegendNANA
07:00 0.6 -1.9 84 LegendMM LegendMM   98.82     LegendNANA
08:00 2.5 -0.8 79 LegendMM LegendMM   98.82     LegendNANA
09:00 4.3 0.4 76 LegendMM LegendMM   98.79     LegendNANA
10:00 6.2 0.8 68 LegendMM LegendMM   98.70     LegendNANA
11:00 10.0 1.3 55 LegendMM LegendMM   98.71     LegendNANA
12:00 10.7 1.4 53 LegendMM LegendMM   98.71     LegendNANA
13:00 12.8 1.3 46 LegendMM LegendMM   98.65     LegendNANA
14:00 13.2 2.1 47 LegendMM LegendMM   98.62     LegendNANA
15:00 12.3 2.2 50 LegendMM LegendMM   98.67     LegendNANA
16:00 12.2 1.8 49 LegendMM LegendMM   98.73     LegendNANA
17:00 12.3 2.4 51 LegendMM LegendMM   98.77     LegendNANA
18:00 11.3 2.6 55 LegendMM LegendMM   98.88     LegendNANA
19:00 10.7 2.6 57 LegendMM LegendMM   98.97     LegendNANA
20:00 9.4 2.4 62 LegendMM LegendMM   98.99     LegendNANA
21:00 8.6 2.7 67 LegendMM LegendMM   99.02     LegendNANA
22:00 7.9 2.6 69 LegendMM LegendMM   99.09     LegendNANA
23:00 7.6 2.9 72 LegendMM LegendMM   99.15     LegendNANA

Notes on Data Quality.

Legend

  • E = Estimated
  • M = Missing
  • NA = Not Available*
  • [empty] = Indicates an unobserved value
Date modified: